Temp
-4 -4 -3 -3 -0 0 1 0 -1 -1 -1 0 6 6 4 4 3 3 3 4 4 4 4 5 4 4 4 4 4 4 4 4 4 4 4 3 3 2 1 0 -0 -0 0
-6 -5 -4 -4 -2 -1 -1 -0 -2 -3 -2 -2 2 5 4 3 3 3 3 4 4 4 4 4 4 4 4 4 4 3 3 3 3 4 3 2 1 1 -1 -1 -1 -1 -1
-6 -6 -5 -5 -5 -3 -3 -2 -2 -4 -4 -3 -2 2 3 3 3 3 3 3 3 4 4 4 3 4 3 3 3 3 3 3 3 2 2 1 1 -0 -1 -2 -1 -1 -2
-6 -6 -6 -5 -6 -5 -4 -4 -3 -4 -4 -3 -3 -1 2 2 3 2 3 3 3 4 4 4 3 3 3 3 3 3 3 2 2 2 1 -0 0 -1 -2 -2 -1 -2 -2
-7 -6 -6 -6 -6 -6 -5 -4 -3 -4 -4 -4 -3 -3 -0 1 2 2 2 3 3 4 3 3 3 3 3 3 2 2 2 2 1 1 -0 -0 -0 -2 -2 -2 -2 -2 -2
-7 -6 -6 -6 -6 -6 -5 -4 -4 -4 -4 -4 -4 -4 -1 1 2 2 2 2 3 3 3 3 3 3 2 2 2 2 1 1 1 0 -0 -0 -1 -2 -2 -2 -2 -2 -1
-7 -6 -6 -6 -7 -6 -6 -5 -3 -4 -4 -4 -4 -4 -2 0 1 1 1 2 2 2 2 2 2 2 2 2 2 2 1 1 0 -0 -1 -2 -3 -2 -3 -3 -3 -4 -4
-7 -6 -6 -6 -6 -7 -6 -5 -4 -4 -5 -4 -5 -4 -2 -1 0 0 1 1 2 2 2 2 2 1 2 2 2 1 1 0 -0 -1 -1 -3 -3 -3 -3 -4 -4 -4 -5
-7 -6 -7 -6 -7 -7 -6 -6 -5 -4 -4 -5 -5 -5 -2 -1 -0 -0 0 1 2 2 1 1 1 1 1 1 1 0 0 -0 -1 -2 -3 -3 -3 -3 -4 -4 -4 -4 -4
-7 -6 -6 -6 -6 -6 -7 -6 -5 -4 -3 -5 -5 -5 -3 -1 -1 -1 -0 1 1 1 1 1 1 1 1 1 1 0 0 -1 -1 -2 -3 -3 -3 -2 -2 -4 -5 -4 -4
-7 -7 -6 -6 -6 -6 -6 -5 -4 -4 -4 -5 -5 -6 -2 -1 -1 -1 -1 0 1 1 1 1 1 1 0 1 1 0 -0 -1 -1 -2 -2 -2 -2 -3 -4 -5 -3 -4 -3
-7 -7 -6 -6 -6 -6 -6 -5 -5 -3 -3 -5 -6 -6 -3 -1 -1 -1 -1 -0 0 1 0 0 1 1 1 1 0 0 -1 -1 -1 -2 -2 -3 -2 -3 -3 -3 -3 -3 -2
-6 -6 -6 -6 -6 -6 -5 -5 -3 -4 -4 -4 -6 -5 -3 -1 -1 -1 -1 -0 -0 0 0 0 -0 1 1 0 -0 -1 -1 -1 -1 -2 -2 -2 -2 -3 -2 -2 -2 -2 -1
-6 -6 -6 -6 -5 -6 -6 -5 -5 -4 -4 -3 -5 -5 -3 -1 -1 -1 -1 -0 -0 -0 -0 -1 -0 0 0 -0 -1 -1 -1 -1 -1 -1 -2 -1 -1 -2 -2 -2 -2 -1 -1
-7 -6 -6 -6 -5 -6 -7 -6 -5 -4 -3 -5 -6 -4 -2 -1 -1 -1 -2 -1 -1 -1 -1 -1 -0 -1 -1 -1 -1 -1 -2 -1 -1 -1 -1 -1 -1 -2 -2 -1 -1 -1 -1
-7 -7 -6 -6 -6 -6 -6 -6 -4 -4 -4 -6 -5 -3 -2 -2 -3 -2 -2 -1 -1 -1 -1 -1 -1 -1 -1 -2 -2 -1 -2 -1 -1 -1 -1 -1 -1 -2 -2 -1 -1 -1 -1
-7 -7 -7 -7 -7 -7 -7 -6 -6 -5 -5 -7 -6 -3 -3 -3 -4 -3 -2 -2 -2 -2 -2 -1 -2 -2 -2 -2 -2 -2 -2 -2 -1 -1 -1 -1 -1 -1 -2 -2 -2 -1 -1
-8 -9 -8 -7 -7 -7 -8 -7 -6 -6 -6 -7 -6 -4 -4 -5 -4 -3 -3 -2 -2 -2 -2 -2 -2 -2 -2 -3 -2 -2 -3 -2 -1 -1 -1 -1 -1 -2 -2 -2 -1 -1 -1
-9 -8 -8 -9 -8 -8 -8 -7 -7 -7 -7 -7 -6 -6 -6 -5 -5 -4 -3 -3 -2 -2 -3 -3 -3 -3 -3 -3 -3 -3 -3 -3 -1 -1 -2 -2 -2 -2 -2 -2 -1 -0 -1
-9 -9 -10 -9 -9 -8 -8 -8 -7 -7 -7 -7 -6 -5 -4 -5 -4 -3 -3 -3 -3 -3 -4 -3 -3 -3 -3 -3 -3 -3 -3 -3 -2 -2 -3 -2 -2 -2 -2 -1 -1 -1 -1
-10 -10 -10 -9 -9 -9 -8 -8 -8 -7 -7 -7 -8 -7 -7 -5 -4 -4 -3 -4 -4 -4 -3 -3 -3 -3 -3 -4 -4 -4 -4 -3 -3 -3 -3 -3 -2 -2 -2 -1 -1 -1 -1
-10 -10 -10 -9 -9 -9 -9 -9 -8 -8 -8 -8 -8 -8 -5 -4 -5 -4 -5 -6 -5 -4 -4 -3 -3 -3 -3 -4 -4 -4 -4 -4 -4 -3 -4 -3 -3 -2 -2 -2 -2 -1 -1
-10 -10 -10 -10 -10 -10 -10 -10 -10 -10 -9 -8 -7 -6 -6 -6 -5 -6 -6 -5 -5 -4 -4 -4 -3 -3 -4 -4 -5 -4 -4 -5 -5 -4 -3 -4 -3 -3 -3 -3 -2 -2 -1
-9 -9 -10 -10 -9 -9 -9 -8 -7 -7 -6 -6 -6 -6 -6 -6 -7 -6 -5 -5 -5 -4 -4 -4 -4 -4 -4 -5 -4 -4 -5 -5 -5 -5 -3 -3 -4 -3 -4 -4 -3 -3 -1
-10 -10 -10 -9 -9 -9 -8 -8 -8 -7 -7 -7 -7 -8 -7 -6 -6 -6 -5 -5 -4 -4 -4 -4 -5 -5 -5 -4 -4 -5 -5 -6 -6 -6 -5 -3 -4 -5 -4 -5 -4 -3 -2
-10 -10 -9 -9 -9 -9 -9 -8 -9 -9 -10 -9 -8 -8 -6 -6 -6 -5 -5 -5 -5 -5 -5 -5 -5 -5 -5 -5 -5 -6 -6 -6 -6 -7 -7 -6 -5 -5 -5 -4 -4 -3 -2
Height
3024 3020 3016 3013 3012 3011 3013 3010 3010 3012 3013 3012 3017 3026 3035 3042 3050 3055 3060 3063 3065 3066 3069 3071 3073 3073 3073 3072 3071 3069 3067 3062 3057 3056 3053 3050 3045 3040 3035 3030 3026 3022 3019
3017 3012 3008 3001 3001 2999 3000 2999 2998 2998 3001 3001 3003 3012 3023 3029 3039 3045 3051 3054 3057 3059 3062 3064 3065 3065 3065 3064 3063 3060 3058 3054 3049 3045 3043 3038 3035 3030 3024 3020 3017 3013 3009
3009 3003 2998 2993 2988 2987 2987 2988 2985 2987 2990 2993 2992 2997 3010 3018 3027 3036 3042 3046 3048 3051 3054 3057 3057 3057 3058 3057 3055 3052 3049 3045 3041 3035 3030 3028 3025 3020 3014 3011 3007 3003 3001
3000 2994 2988 2984 2978 2974 2976 2977 2972 2977 2981 2984 2983 2986 2999 3007 3016 3026 3033 3038 3041 3044 3047 3048 3049 3050 3050 3049 3047 3045 3041 3037 3033 3027 3021 3017 3015 3011 3004 3000 2997 2993 2990
2990 2986 2980 2975 2969 2965 2963 2965 2963 2964 2971 2975 2976 2978 2988 2996 3006 3017 3025 3030 3033 3036 3039 3041 3043 3043 3043 3041 3040 3037 3033 3029 3024 3018 3013 3009 3006 3000 2995 2990 2985 2981 2978
2981 2977 2972 2965 2960 2956 2952 2951 2953 2952 2961 2966 2967 2970 2978 2987 2998 3008 3017 3022 3026 3029 3032 3034 3036 3036 3036 3035 3033 3030 3027 3021 3016 3010 3005 3001 2995 2989 2984 2979 2974 2968 2962
2973 2968 2962 2957 2951 2946 2941 2939 2940 2945 2949 2956 2959 2963 2970 2979 2990 3001 3009 3014 3018 3021 3024 3027 3028 3028 3028 3027 3026 3023 3019 3013 3008 3002 2996 2991 2985 2980 2975 2968 2961 2954 2948
2963 2959 2954 2949 2944 2940 2935 2931 2931 2937 2937 2946 2952 2956 2963 2972 2984 2994 3001 3007 3011 3014 3018 3020 3021 3021 3020 3020 3019 3016 3011 3007 3002 2999 2991 2984 2978 2973 2967 2958 2950 2944 2940
2953 2949 2945 2941 2936 2932 2926 2921 2923 2927 2929 2936 2944 2949 2955 2966 2977 2987 2994 3000 3004 3008 3012 3014 3015 3014 3013 3013 3012 3009 3005 3001 2998 2992 2984 2979 2974 2969 2961 2951 2945 2936 2931
2943 2938 2935 2932 2926 2919 2917 2913 2914 2917 2921 2928 2936 2942 2949 2960 2971 2981 2987 2993 2998 3002 3005 3007 3008 3008 3007 3006 3004 3001 2999 2997 2992 2987 2981 2977 2971 2963 2955 2948 2941 2932 2924
2931 2927 2924 2921 2916 2910 2905 2903 2905 2908 2914 2918 2928 2935 2943 2956 2966 2975 2982 2987 2992 2996 2999 3001 3002 3003 3002 3000 2997 2995 2993 2992 2986 2980 2977 2972 2966 2957 2952 2947 2939 2930 2919
2920 2916 2912 2908 2905 2900 2895 2894 2892 2902 2905 2910 2922 2929 2937 2953 2962 2969 2976 2981 2986 2990 2994 2994 2996 2996 2996 2995 2993 2989 2988 2985 2981 2977 2973 2968 2962 2955 2950 2946 2937 2927 2920
2908 2904 2901 2897 2893 2887 2881 2880 2885 2892 2898 2904 2915 2921 2930 2945 2955 2963 2969 2975 2981 2985 2987 2989 2989 2989 2991 2990 2987 2985 2984 2981 2979 2974 2970 2965 2960 2955 2950 2948 2935 2927 2918
2897 2892 2890 2887 2883 2879 2874 2874 2879 2885 2890 2896 2906 2915 2923 2938 2949 2957 2963 2970 2976 2980 2982 2983 2983 2984 2985 2985 2982 2980 2980 2979 2976 2971 2969 2964 2960 2957 2955 2950 2942 2933 2931
2886 2882 2878 2875 2873 2869 2868 2870 2873 2878 2885 2891 2903 2910 2920 2932 2945 2955 2961 2966 2972 2975 2976 2977 2978 2979 2979 2980 2978 2976 2977 2976 2973 2968 2967 2964 2962 2960 2957 2955 2950 2946 2944
2875 2872 2868 2865 2864 2861 2861 2864 2867 2874 2882 2888 2898 2910 2921 2936 2945 2950 2956 2963 2967 2969 2972 2973 2973 2973 2975 2976 2974 2972 2974 2973 2970 2966 2964 2963 2962 2962 2961 2960 2958 2957 2953
2865 2862 2858 2856 2852 2851 2853 2857 2863 2870 2879 2888 2897 2907 2921 2933 2939 2946 2952 2957 2961 2964 2967 2967 2967 2968 2969 2971 2970 2968 2970 2970 2967 2962 2962 2963 2963 2963 2963 2964 2963 2964 2961
2855 2853 2851 2845 2843 2845 2849 2855 2861 2868 2875 2883 2894 2907 2917 2927 2935 2942 2948 2952 2956 2958 2961 2962 2961 2963 2964 2966 2966 2964 2967 2967 2963 2959 2958 2960 2962 2963 2964 2965 2966 2967 2968
2847 2845 2841 2836 2836 2842 2848 2853 2859 2866 2874 2882 2892 2902 2913 2924 2932 2939 2944 2948 2950 2953 2954 2955 2956 2958 2960 2961 2962 2960 2963 2963 2959 2955 2954 2959 2961 2963 2967 2968 2970 2971 2973
2841 2839 2833 2833 2837 2842 2848 2854 2860 2868 2875 2886 2895 2904 2913 2922 2929 2935 2940 2941 2945 2947 2948 2950 2951 2954 2955 2957 2957 2957 2958 2961 2957 2952 2952 2957 2959 2963 2966 2969 2971 2974 2977
2838 2836 2836 2838 2841 2845 2852 2858 2866 2874 2880 2888 2896 2905 2913 2920 2926 2931 2933 2938 2939 2942 2943 2945 2948 2950 2951 2953 2954 2954 2953 2957 2956 2952 2952 2956 2958 2960 2963 2968 2973 2976 2979
2841 2840 2842 2845 2848 2851 2856 2863 2870 2879 2885 2891 2898 2905 2913 2919 2921 2927 2930 2932 2935 2937 2939 2942 2943 2945 2947 2948 2950 2950 2949 2952 2954 2952 2950 2953 2957 2959 2961 2965 2971 2974 2977
2847 2847 2848 2852 2856 2860 2864 2869 2876 2882 2890 2895 2901 2907 2911 2915 2919 2921 2924 2928 2931 2934 2937 2938 2939 2941 2943 2944 2945 2946 2945 2946 2950 2951 2948 2949 2953 2956 2959 2961 2968 2973 2976
2855 2857 2859 2861 2865 2869 2873 2878 2882 2887 2891 2895 2899 2903 2907 2911 2914 2917 2920 2925 2929 2931 2932 2935 2936 2937 2938 2938 2940 2942 2942 2941 2942 2946 2946 2945 2947 2952 2955 2958 2962 2969 2973
2858 2860 2864 2867 2870 2873 2876 2880 2883 2886 2890 2893 2897 2902 2906 2909 2913 2917 2921 2923 2926 2928 2930 2932 2932 2933 2933 2935 2937 2937 2937 2936 2935 2937 2940 2940 2942 2946 2951 2954 2958 2963 2969
2862 2863 2864 2867 2869 2872 2875 2878 2882 2886 2890 2894 2899 2902 2906 2910 2913 2916 2918 2919 2922 2925 2926 2927 2928 2929 2931 2932 2932 2932 2931 2929 2928 2929 2932 2933 2935 2938 2943 2947 2952 2957 2964
Wind_Speed
39 33 37 36 30 29 35 38 44 50 50 57 60 50 45 46 43 42 40 38 35 34 32 30 29 28 27 29 31 31 31 34 38 37 39 38 38 40 42 39 31 29 29
39 38 37 39 39 34 32 32 42 49 45 53 59 53 44 46 44 42 39 37 35 33 31 29 28 28 27 29 30 30 31 34 38 40 39 38 38 38 38 33 29 29 29
37 41 37 40 33 38 32 33 31 39 39 47 56 55 43 46 44 40 37 36 34 32 30 28 27 27 27 29 29 30 32 35 37 41 41 39 37 37 35 30 32 33 33
37 36 37 36 38 34 42 37 27 33 36 44 50 55 43 44 42 38 36 35 33 31 29 27 27 26 28 28 28 30 33 36 38 39 40 40 38 35 34 33 33 35 38
33 35 37 36 39 40 35 45 30 31 33 39 48 52 41 43 41 37 35 33 31 30 27 26 25 27 27 27 28 29 34 36 36 38 39 39 37 34 32 34 38 39 40
34 34 35 34 39 39 36 39 49 25 39 36 45 48 38 43 39 35 33 31 31 28 26 25 25 26 25 26 27 29 33 34 35 37 38 39 35 34 34 37 41 42 42
34 36 36 33 40 41 35 33 37 34 39 39 43 47 38 41 38 33 31 30 30 27 25 24 24 25 26 25 25 29 31 31 35 37 39 36 34 34 38 42 45 42 35
37 37 36 36 36 40 40 31 31 37 36 42 39 45 38 41 35 32 29 30 29 26 25 23 24 24 25 26 25 28 29 30 31 32 36 33 33 36 40 42 37 38 32
37 36 34 36 41 41 35 34 27 33 31 43 37 43 39 38 35 30 29 30 27 24 24 23 23 23 24 25 26 26 27 27 26 30 30 28 31 34 36 32 35 31 37
38 38 37 36 41 37 38 32 28 26 23 44 36 43 40 38 34 29 29 28 25 23 24 22 21 21 22 25 26 26 26 24 24 25 22 24 29 30 24 29 31 31 33
40 40 36 35 38 37 39 29 29 25 23 42 38 44 42 36 32 28 27 26 24 24 23 22 20 20 19 23 25 25 25 21 23 24 20 24 28 20 23 22 27 31 33
44 41 39 36 36 37 37 28 24 29 22 38 40 45 40 33 31 28 27 26 25 23 23 22 19 19 19 21 23 24 23 19 23 22 19 24 21 19 18 23 25 31 25
45 41 40 36 32 38 34 25 26 30 33 37 42 43 41 38 34 30 28 28 23 22 23 20 19 19 19 21 21 23 19 17 21 19 17 22 21 16 22 26 22 28 21
45 41 39 34 32 38 26 22 25 34 36 34 39 44 43 38 35 32 29 26 21 21 20 19 19 19 19 21 21 21 16 15 19 18 14 18 14 12 18 14 21 20 21
42 38 38 32 31 36 20 18 26 34 35 36 39 41 42 38 31 25 23 19 20 19 19 20 20 21 21 18 20 19 15 14 17 18 11 12 8 9 16 15 15 16 12
38 35 33 33 36 30 21 19 27 32 33 35 35 31 32 26 26 23 22 22 17 16 23 22 21 21 18 15 17 18 13 14 16 17 10 8 5 6 10 9 9 15 9
32 31 31 36 40 22 24 24 25 29 35 38 34 31 29 28 26 25 24 20 18 18 23 21 22 21 16 14 15 16 12 13 15 17 9 2 3 5 6 7 13 12 12
26 28 36 37 30 21 23 22 26 35 39 40 34 28 30 27 25 25 22 20 18 19 22 21 21 19 14 13 14 14 12 13 14 17 10 3 5 9 9 5 9 8 8
24 33 34 25 17 25 25 21 36 41 41 40 35 34 30 28 25 23 21 22 18 22 21 19 19 16 14 12 12 14 14 12 12 13 9 7 6 14 14 10 12 10 13
24 25 9 15 21 26 27 27 39 39 38 35 36 32 29 26 23 23 23 17 20 20 18 17 17 14 13 12 11 14 15 12 12 10 8 8 8 17 20 15 13 15 13
15 5 8 18 23 22 22 21 29 31 36 37 34 28 23 22 24 19 15 18 20 17 15 14 16 14 13 11 11 14 15 11 11 10 8 8 8 17 21 22 19 21 19
7 6 12 11 18 21 20 20 31 34 31 25 23 24 24 23 14 19 20 18 17 15 14 15 14 13 13 11 11 13 16 14 9 11 11 10 11 13 23 25 24 19 21
9 11 16 13 12 19 26 31 30 30 28 27 24 19 17 18 22 17 16 15 14 15 15 14 13 12 11 12 12 14 17 18 12 11 11 14 15 14 20 25 28 25 23
13 12 15 19 21 20 24 25 22 21 21 20 17 16 19 18 17 16 12 13 15 15 13 13 12 11 11 12 15 15 17 20 21 13 12 17 20 20 20 25 29 31 27
16 16 14 12 11 13 13 11 13 16 16 16 17 16 14 13 13 14 15 14 13 12 11 10 10 9 9 12 15 18 20 22 23 19 14 20 25 23 22 26 29 36 32
10 13 13 11 11 14 15 17 18 17 14 13 13 13 14 15 15 13 12 11 10 9 9 8 7 8 9 13 16 18 19 22 25 22 16 20 27 27 26 25 29 36 37
Wind_Direction
307 308 302 281 270 272 275 261 255 259 257 248 248 242 235 235 237 245 251 256 259 257 252 255 258 262 271 279 283 288 293 296 298 301 303 304 306 308 305 300 301 300 298
306 307 299 302 272 270 282 268 248 255 257 241 245 244 232 231 232 239 246 253 257 252 250 256 258 265 274 281 286 291 295 296 298 301 303 307 311 308 302 299 297 296 292
296 304 304 302 287 263 267 289 262 248 247 235 244 243 232 226 227 234 243 250 253 248 250 254 257 265 275 281 288 292 295 298 301 302 306 308 312 307 300 296 293 291 291
300 301 308 299 298 286 254 272 268 235 239 237 243 246 230 220 221 229 239 247 247 245 250 253 258 268 275 284 290 294 297 299 301 304 306 309 313 305 299 295 289 288 289
301 299 301 301 300 301 271 249 273 226 227 242 241 244 231 214 214 224 235 244 244 244 249 251 258 268 278 285 291 296 297 301 305 304 306 311 312 299 297 296 295 294 291
307 309 306 297 302 297 285 258 258 238 220 231 240 243 226 209 210 219 233 241 240 244 249 253 261 270 279 284 290 295 296 300 303 304 309 314 309 305 300 300 305 302 294
314 312 312 298 300 311 301 263 254 261 215 219 235 240 223 206 207 216 230 237 237 243 247 251 261 272 280 286 292 296 302 305 307 311 316 316 311 310 309 314 311 308 303
309 309 306 299 298 305 305 287 256 259 210 212 230 236 219 206 204 214 226 232 234 241 247 253 264 275 283 289 296 301 304 306 310 313 313 314 313 312 317 313 312 310 300
307 307 304 305 304 299 303 291 269 249 227 208 223 232 216 204 205 211 224 228 233 241 247 252 264 274 283 293 297 302 302 307 313 317 313 314 311 317 314 310 310 311 313
308 303 303 306 302 298 304 294 280 243 251 201 218 228 219 205 203 210 221 226 232 242 247 254 265 276 286 293 299 303 304 312 319 317 310 307 316 319 313 310 314 311 321
306 307 306 303 303 298 302 288 262 238 254 202 214 224 219 201 201 209 219 226 232 242 250 256 267 277 284 290 299 301 308 318 328 320 316 322 328 323 321 326 318 305 318
307 305 309 305 302 301 302 283 256 233 240 205 214 221 214 198 201 206 216 225 233 245 254 261 273 280 286 296 298 303 312 328 331 322 325 334 331 324 337 332 326 318 343
306 303 308 306 300 304 298 281 247 216 224 204 211 217 206 194 200 206 215 226 234 247 257 268 275 284 292 297 300 303 313 326 326 326 330 340 336 343 354 337 343 350 29
303 301 307 306 299 311 287 264 232 214 207 204 207 214 205 192 198 206 214 224 235 248 259 268 277 284 293 300 298 301 311 320 325 330 336 345 343 354 2 9 1 35 37
300 298 304 304 303 311 274 261 217 214 204 194 207 215 203 190 196 209 218 228 239 250 262 266 275 282 288 297 293 297 306 316 323 333 331 343 342 21 27 32 14 35 10
294 298 302 304 304 299 244 240 213 211 208 193 211 214 202 185 200 211 218 226 236 252 261 267 277 281 284 288 291 292 304 315 321 327 319 341 322 65 32 77 50 46 40
293 300 301 302 306 270 224 223 220 209 199 189 206 201 189 193 196 208 217 224 232 255 259 269 279 274 280 284 285 286 301 313 321 317 309 308 252 134 81 33 94 70 80
294 301 302 301 292 215 214 215 198 196 182 185 200 181 179 187 203 213 220 226 248 261 264 275 272 267 272 276 275 283 297 313 325 314 291 208 196 154 129 109 93 122 82
303 302 302 286 212 188 206 194 189 190 183 187 176 170 178 191 204 214 222 234 253 260 269 263 256 262 266 269 270 283 294 321 332 314 270 187 188 169 150 166 126 129 165
298 310 288 168 170 186 191 188 187 186 183 181 169 171 180 193 206 216 232 243 257 262 247 248 255 255 257 255 265 279 296 326 345 312 257 194 190 180 171 178 138 138 143
287 356 163 165 169 177 181 180 193 187 172 166 168 176 185 199 217 232 249 254 262 245 239 245 252 248 250 248 259 279 296 321 348 318 252 209 208 191 183 180 170 167 159
342 121 162 165 173 182 196 179 168 163 158 156 168 185 201 211 218 235 253 247 234 238 247 243 239 240 247 250 259 278 292 306 335 327 274 233 215 210 192 191 190 182 172
71 103 171 175 162 170 156 151 153 157 166 177 183 191 203 217 240 233 214 218 231 239 234 233 236 241 245 254 267 279 290 300 311 310 287 250 232 226 203 197 187 195 183
122 100 107 124 133 155 161 165 169 176 181 186 194 212 227 215 203 196 207 225 223 220 217 223 232 242 252 270 280 289 297 300 300 301 276 249 238 227 220 202 199 190 194
181 187 183 182 164 167 171 193 211 219 213 198 182 185 184 196 207 213 214 211 212 215 220 226 233 250 266 278 288 294 296 297 299 302 277 246 232 229 223 209 206 194 203
180 194 204 211 205 190 185 175 162 153 153 161 175 185 197 200 199 197 195 200 212 220 225 231 243 260 272 281 286 290 298 301 299 296 275 243 228 223 223 217 206 201 200